Orbital Elements at Epoch 2459000.5 (2020-May-31.0) TDB
Reference: JPL 30 (heliocentric ecliptic J2000)
Element | Value | Uncertainty (1-sigma) | Units |
e | .1704548913624293 | 5.4851e-08 | |
a | 5.212406796480294 | 9.9343e-08 | au |
q | 4.323926562249457 | 2.8873e-07 | au |
i | 23.09210549729617 | 6.2082e-06 | deg |
node | 175.8317409449502 | 9.7688e-06 | deg |
peri | 163.258487355568 | 1.8746e-05 | deg |
M | 14.46627840556695 | 1.3191e-05 | deg |
tp | 2458825.833266439200 (2019-Dec-08.33326644) | 0.00016046 | TDB |
period | 4346.662100578006 11.90 | 0.00012426 3.402e-07 | d yr |
n | .08282217289264981 | 2.3678e-09 | deg/d |
Q | 6.100887030711131 | 1.1628e-07 | au |
|
| | Orbit Determination Parameters
Additional Information
|